| time (UTC) | temp F | wind direction | speed MPH | gust MPH | rain 1hr in | rain 24hr in | rain mn in | humidity % | barometer mb |
| 20260503000311 | 57 | 90 | 2.0 | 4.0 | 0.00 | 0.00 | 0.00 | 88 | 1011.8 |
| 20260502235307 | 58 | 90 | 2.0 | 4.0 | 0.00 | 0.00 | 0.00 | 88 | 1012.0 |
| 20260502234242 | 58 | 90 | 2.0 | 4.0 | 0.00 | 0.00 | 0.00 | 88 | 1012.1 |
| 20260502233258 | 58 | 97 | 4.0 | 4.0 | 0.00 | 0.00 | 0.00 | 88 | 1012.1 |
| 20260502232233 | 58 | 107 | 3.0 | 4.0 | 0.00 | 0.00 | 0.00 | 88 | 1012.0 |
| 20260502231229 | 58 | 77 | 3.0 | 6.0 | 0.00 | 0.00 | 0.00 | 88 | 1012.1 |
| 20260502230305 | 58 | 90 | 4.0 | 4.0 | 0.00 | 0.00 | 0.00 | 88 | 1012.1 |
| 20260502225221 | 58 | 98 | 3.0 | 6.0 | 0.00 | 0.00 | 0.00 | 88 | 1012.2 |
| 20260502224217 | 58 | 82 | 3.0 | 4.0 | 0.00 | 0.00 | 0.00 | 88 | 1012.2 |
| 20260502223313 | 58 | 72 | 3.0 | 4.0 | 0.00 | 0.00 | 0.00 | 88 | 1012.3 |
| 20260502222308 | 58 | 68 | 4.0 | 7.0 | 0.00 | 0.00 | 0.00 | 88 | 1012.0 |
| 20260502221304 | 58 | 32 | 4.0 | 7.0 | 0.00 | 0.00 | 0.00 | 89 | 1011.9 |
| 20260502220320 | 58 | 83 | 4.0 | 9.0 | 0.00 | 0.00 | 0.00 | 89 | 1011.9 |
| 20260502215255 | 58 | 60 | 3.0 | 7.0 | 0.00 | 0.00 | 0.00 | 89 | 1012.2 |
| 20260502214311 | 58 | 71 | 4.0 | 8.0 | 0.00 | 0.00 | 0.00 | 89 | 1012.2 |
| 20260502213246 | 58 | 51 | 4.0 | 6.0 | 0.00 | 0.00 | 0.00 | 88 | 1012.0 |
| 20260502212304 | 58 | 77 | 3.0 | 4.0 | 0.00 | 0.00 | 0.00 | 88 | 1012.2 |
| 20260502211258 | 58 | 98 | 3.0 | 4.0 | 0.00 | 0.00 | 0.00 | 88 | 1012.0 |
| 20260502210234 | 58 | 104 | 3.0 | 6.0 | 0.00 | 0.00 | 0.00 | 88 | 1012.0 |
| 20260502205229 | 58 | 77 | 4.0 | 4.0 | 0.00 | 0.00 | 0.00 | 89 | 1012.0 |
| 20260502204225 | 58 | 83 | 3.0 | 4.0 | 0.00 | 0.00 | 0.00 | 89 | 1012.1 |
| 20260502203220 | 58 | 75 | 3.0 | 4.0 | 0.00 | 0.00 | 0.00 | 88 | 1011.8 |
| 20260502202216 | 58 | 68 | 2.0 | 4.0 | 0.00 | 0.00 | 0.00 | 87 | 1012.0 |
| 20260502201332 | 59 | 51 | 2.0 | 4.0 | 0.00 | 0.00 | 0.00 | 86 | 1011.8 |
| 20260502200308 | 59 | 68 | 4.0 | 6.0 | 0.00 | 0.00 | 0.00 | 86 | 1011.6 |
| 20260502195305 | 59 | 76 | 4.0 | 7.0 | 0.00 | 0.00 | 0.00 | 86 | 1011.8 |
| 20260502194300 | 59 | 83 | 4.0 | 7.0 | 0.00 | 0.00 | 0.00 | 86 | 1011.6 |
| 20260502193316 | 60 | 44 | 4.0 | 7.0 | 0.00 | 0.00 | 0.00 | 86 | 1011.6 |
| 20260502192251 | 60 | 99 | 4.0 | 7.0 | 0.00 | 0.00 | 0.00 | 85 | 1011.4 |
| 20260502191247 | 60 | 74 | 6.0 | 8.0 | 0.00 | 0.00 | 0.00 | 85 | 1011.4 |
| 20260502190302 | 61 | 83 | 4.0 | 6.0 | 0.00 | 0.00 | 0.00 | 84 | 1011.6 |
| 20260502185238 | 61 | 66 | 4.0 | 6.0 | 0.00 | 0.00 | 0.00 | 84 | 1011.6 |
| 20260502184234 | 61 | 83 | 3.0 | 4.0 | 0.00 | 0.00 | 0.00 | 83 | 1011.4 |
| 20260502183250 | 62 | 75 | 2.0 | 4.0 | 0.00 | 0.00 | 0.00 | 83 | 1011.5 |
| 20260502182246 | 62 | 83 | 4.0 | 7.0 | 0.00 | 0.00 | 0.00 | 82 | 1011.4 |
| 20260502181221 | 62 | 98 | 2.0 | 4.0 | 0.00 | 0.00 | 0.00 | 82 | 1011.1 |
| 20260502180217 | 62 | 68 | 3.0 | 6.0 | 0.00 | 0.00 | 0.00 | 82 | 1011.1 |
| 20260502170252 | 65 | 83 | 2.0 | 6.0 | 0.00 | 0.00 | 0.00 | 75 | 1011.5 |
| 20260502164244 | 66 | 71 | 2.0 | 4.0 | 0.00 | 0.00 | 0.00 | 74 | 1011.6 |
| 20260502163240 | 66 | 75 | 2.0 | 6.0 | 0.00 | 0.00 | 0.00 | 73 | 1011.6 |
| 20260502162255 | 66 | 106 | 4.0 | 8.0 | 0.00 | 0.00 | 0.00 | 72 | 1011.6 |
| 20260502161231 | 67 | 94 | 4.0 | 7.0 | 0.00 | 0.00 | 0.00 | 71 | 1011.7 |
| 20260502160227 | 68 | 52 | 4.0 | 7.0 | 0.00 | 0.00 | 0.00 | 69 | 1011.7 |
| 20260502152330 | 68 | 89 | 3.0 | 7.0 | 0.00 | 0.01 | 0.00 | 68 | 1012.1 |
| 20260502151306 | 70 | 73 | 2.0 | 4.0 | 0.00 | 0.01 | 0.00 | 65 | 1012.0 |
| 20260502150301 | 69 | 113 | 4.0 | 9.0 | 0.00 | 0.01 | 0.00 | 67 | 1012.3 |
| 20260502130311 | 67 | 19 | 3.0 | 6.0 | 0.00 | 0.01 | 0.00 | 68 | 1014.1 |
| 20260502123258 | 67 | 94 | 4.0 | 7.0 | 0.00 | 0.01 | 0.00 | 68 | 1014.2 |
| 20260502122254 | 67 | 74 | 4.0 | 9.0 | 0.00 | 0.01 | 0.00 | 69 | 1014.3 |
| 20260502121250 | 67 | 68 | 3.0 | 7.0 | 0.00 | 0.01 | 0.00 | 68 | 1014.3 |
| 20260502120245 | 66 | 55 | 5.0 | 9.0 | 0.00 | 0.01 | 0.00 | 67 | 1014.4 |
| 20260502115241 | 66 | 85 | 5.0 | 11.0 | 0.00 | 0.01 | 0.00 | 67 | 1014.4 |
| 20260502114236 | 66 | 113 | 2.0 | 7.0 | 0.00 | 0.01 | 0.00 | 67 | 1014.4 |
| 20260502113232 | 66 | 68 | 5.0 | 9.0 | 0.00 | 0.01 | 0.00 | 67 | 1014.7 |
| 20260502112248 | 66 | 92 | 3.0 | 7.0 | 0.00 | 0.01 | 0.00 | 67 | 1014.8 |
| 20260502111224 | 66 | 84 | 5.0 | 13.0 | 0.00 | 0.01 | 0.00 | 67 | 1014.8 |
| 20260502110219 | 65 | 113 | 5.0 | 11.0 | 0.00 | 0.01 | 0.00 | 69 | 1015.1 |
| 20260502105215 | 66 | 81 | 4.0 | 7.0 | 0.00 | 0.01 | 0.00 | 69 | 1015.0 |
| 20260502104311 | 65 | 105 | 4.0 | 8.0 | 0.00 | 0.01 | 0.00 | 70 | 1015.3 |
| 20260502103307 | 64 | 68 | 3.0 | 6.0 | 0.00 | 0.01 | 0.00 | 72 | 1015.3 |
| 20260502102305 | 64 | 75 | 4.0 | 9.0 | 0.00 | 0.01 | 0.00 | 72 | 1015.4 |
| 20260502101258 | 64 | 90 | 3.0 | 6.0 | 0.00 | 0.01 | 0.00 | 73 | 1015.3 |
| 20260502100254 | 64 | 56 | 3.0 | 7.0 | 0.00 | 0.01 | 0.00 | 73 | 1015.3 |
| 20260502091233 | 64 | 90 | 3.0 | 7.0 | 0.00 | 0.01 | 0.00 | 71 | 1015.5 |
| 20260502090229 | 64 | 106 | 1.0 | 6.0 | 0.00 | 0.01 | 0.00 | 74 | 1015.4 |
| 20260502071302 | 59 | 77 | 3.0 | 4.0 | 0.00 | 0.01 | 0.00 | 84 | 1015.7 |
| 20260502070258 | 58 | 101 | 2.0 | 4.0 | 0.00 | 0.01 | 0.00 | 86 | 1015.6 |
| 20260502065234 | 58 | 90 | 1.0 | 2.0 | 0.00 | 0.01 | 0.00 | 87 | 1015.8 |
| 20260502064229 | 58 | 56 | 3.0 | 4.0 | 0.00 | 0.01 | 0.00 | 87 | 1015.6 |
| 20260502063245 | 58 | 75 | 2.0 | 4.0 | 0.00 | 0.01 | 0.00 | 88 | 1015.8 |
| 20260502062221 | 57 | 83 | 2.0 | 4.0 | 0.00 | 0.01 | 0.00 | 89 | 1015.6 |
| 20260502061217 | 57 | 52 | 2.0 | 4.0 | 0.00 | 0.01 | 0.00 | 89 | 1015.7 |
| 20260502060313 | 57 | 79 | 2.0 | 4.0 | 0.00 | 0.01 | 0.00 | 89 | 1015.6 |
| 20260502055308 | 57 | 81 | 3.0 | 4.0 | 0.00 | 0.01 | 0.00 | 89 | 1015.4 |
| 20260502054344 | 57 | 90 | 2.0 | 4.0 | 0.00 | 0.01 | 0.00 | 90 | 1015.2 |
| 20260502053320 | 56 | 90 | 1.0 | 2.0 | 0.00 | 0.01 | 0.00 | 90 | 1015.3 |
| 20260502052256 | 56 | 68 | 2.0 | 4.0 | 0.00 | 0.01 | 0.00 | 90 | 1015.2 |
| 20260502051251 | 56 | 90 | 2.0 | 4.0 | 0.00 | 0.01 | 0.00 | 90 | 1015.4 |
| 20260502050247 | 56 | 56 | 2.0 | 4.0 | 0.00 | 0.01 | 0.00 | 90 | 1015.4 |
| 20260502045242 | 56 | 68 | 2.0 | 4.0 | 0.00 | 0.01 | 0.00 | 89 | 1015.5 |
| 20260502044238 | 57 | 68 | 1.0 | 2.0 | 0.00 | 0.01 | 0.00 | 89 | 1015.6 |
| 20260502043233 | 57 | 90 | 2.0 | 4.0 | 0.00 | 0.01 | 0.00 | 88 | 1015.7 |
| 20260502042229 | 57 | 90 | 1.0 | 4.0 | 0.00 | 0.01 | 0.00 | 88 | 1015.8 |
| 20260502041225 | 57 | 71 | 1.0 | 4.0 | 0.00 | 0.01 | 0.00 | 89 | 1015.6 |
| 20260502040221 | 56 | 83 | 2.0 | 2.0 | 0.00 | 0.01 | 0.00 | 90 | 1015.7 |
| 20260502035216 | 56 | 78 | 1.0 | 2.0 | 0.00 | 0.01 | 0.00 | 90 | 1015.8 |
| 20260502034332 | 56 | 90 | 3.0 | 4.0 | 0.00 | 0.01 | 0.00 | 89 | 1015.9 |
| 20260502033327 | 56 | 83 | 2.0 | 4.0 | 0.00 | 0.01 | 0.00 | 90 | 1015.8 |
| 20260502032306 | 56 | 68 | 1.0 | 4.0 | 0.00 | 0.01 | 0.00 | 90 | 1016.2 |
| 20260502031259 | 56 | 68 | 1.0 | 2.0 | 0.00 | 0.01 | 0.00 | 90 | 1016.3 |
| 20260502030315 | 56 | 0.0 | 0.0 | 0.00 | 0.01 | 0.00 | 90 | 1016.4 | |
| 20260502025311 | 56 | 83 | 2.0 | 2.0 | 0.00 | 0.01 | 0.00 | 90 | 1016.3 |
| 20260502024247 | 56 | 94 | 3.0 | 4.0 | 0.00 | 0.01 | 0.00 | 90 | 1016.1 |
| 20260502023242 | 56 | 103 | 2.0 | 4.0 | 0.00 | 0.01 | 0.00 | 90 | 1016.3 |
| 20260502022238 | 56 | 68 | 1.0 | 2.0 | 0.00 | 0.01 | 0.00 | 90 | 1016.0 |
| 20260502021234 | 56 | 71 | 1.0 | 4.0 | 0.00 | 0.01 | 0.00 | 90 | 1016.0 |
| 20260502020230 | 56 | 73 | 3.0 | 4.0 | 0.00 | 0.01 | 0.00 | 90 | 1016.1 |
| 20260502015225 | 56 | 83 | 2.0 | 2.0 | 0.00 | 0.01 | 0.00 | 90 | 1016.1 |
| 20260502014241 | 56 | 68 | 2.0 | 2.0 | 0.00 | 0.01 | 0.00 | 90 | 1016.1 |
| 20260502013217 | 56 | 83 | 2.0 | 4.0 | 0.00 | 0.01 | 0.00 | 91 | 1016.3 |
| 20260502012313 | 56 | 68 | 1.0 | 2.0 | 0.00 | 0.01 | 0.00 | 91 | 1016.5 |
| 20260502011309 | 56 | 68 | 1.0 | 2.0 | 0.00 | 0.01 | 0.00 | 92 | 1016.7 |
| 20260502010304 | 55 | 52 | 2.0 | 2.0 | 0.00 | 0.02 | 0.00 | 92 | 1016.6 |
| 20260502005300 | 55 | 68 | 1.0 | 2.0 | 0.00 | 0.02 | 0.00 | 92 | 1016.7 |
| 20260502004256 | 55 | 62 | 2.0 | 2.0 | 0.00 | 0.04 | 0.00 | 92 | 1016.8 |
| 20260502003252 | 55 | 90 | 1.0 | 2.0 | 0.00 | 0.06 | 0.00 | 92 | 1016.8 |
| 20260502002247 | 54 | 75 | 2.0 | 4.0 | 0.00 | 0.13 | 0.00 | 92 | 1016.9 |
| 20260502001243 | 54 | 68 | 2.0 | 4.0 | 0.00 | 0.19 | 0.00 | 92 | 1017.0 |